Location: Home
(42.5358°N, 72.7383°W)
Time: 11:17:30
(UTC-05:00)

S-56A Canister/Altair - Pass Details

Date: 07 December 2021
Orbit: 634 x 2499 km, 38.9° (Epoch: 22 January)

Event Time Altitude Azimuth Distance (km) Brightness Sun altitude
Rises 21:46:09 0° 228° (SW) 5,920 12.2 -58.7°
Enters shadow 21:50:32 10° 223° (SW) 4,722 11.5 -59.4°
Reaches altitude 10° 21:50:33 10° 223° (SW) 4,719 - -59.4°
Maximum altitude 22:02:10 45° 157° (SSE) 2,193 - -61.2°
Drops below altitude 10° 22:10:14 10° 88° (E) 3,312 - -62.4°
Sets 22:12:47 0° 81° (E) 4,058 - -62.8°
